Location: Unspecified
(38.0989°N, 0.6729°W)
Time: 06:13:16
(UTC+02:00)

Tiangong 2 - Visible Passes

Search period start: 01 May 2017 00:00
Search period end: 11 May 2017 00:00
Orbit: 380 x 389 km, 42.8° (Epoch: 29 April)

Date Brightness Start Highest point End Pass type
(mag) Time Alt. Az. Time Alt. Az. Time Alt. Az.
05 May 3.4 06:07:10 10° S 06:09:13 16° SE 06:11:15 10° ESE visible
07 May 2.4 05:45:20 20° SSW 05:46:44 29° SSE 05:49:32 10° E visible
08 May 3.7 04:48:29 14° ESE 04:48:29 14° ESE 04:49:25 10° ESE visible
08 May 1.0 06:20:42 10° WSW 06:23:48 86° NNW 06:26:58 10° ENE visible
09 May 1.3 05:23:47 46° SSW 05:24:19 54° SSE 05:27:24 10° ENE visible
10 May 3.7 04:26:50 16° E 04:26:50 16° E 04:27:40 10° E visible
10 May 1.5 05:59:02 14° W 06:01:31 55° NNW 06:04:37 10° ENE visible
